sat.trackr.live / text

‹ back to catalog

STARLINK-5362

NORAD 55493 · 2023-015AW

PAYLOAD ACTIVE UNKNOWN

§ Identity

Operator
Country
US
Launch date
2023-02-02
Launch site
AFETR
Launch vehicle
Mass (kg)
RCS (m²)

Purposes: comms

External: N2YO · Heavens-Above · Gunter

§ Orbital elements

Epoch: 2026-05-25T00:51:50.673888Z

Period
94.27 min
Inclination
43.0008°
Eccentricity
0.0001308
Mean motion
15.27575552 rev/d
Perigee alt
482.2 km
Apogee alt
484.0 km
Semi-major
6,861.2 km
B*
3.0979e-5
RAAN
268.3746°
Arg perigee
277.4752°
Mean anomaly
82.5951°
Rev number
18,227

§ Raw data

STARLINK-53621 55493U 23015AW  26145.03600317  .00000590  00000+0  30979-4 0  99902 55493  43.0008 268.3746 0001308 277.4752  82.5951 15.27575552182279

JSON: /api/v1/satellites/55493 · /tle

For live sub-satellite position, see the globe view (requires WebGL).

§ Visibility from observer

Set your observer location to see the next 7 days of passes ≥ 10°. The values pass through the URL so the page stays shareable.

No JS? Fill the form by hand. The geolocation button needs JavaScript.